Location: Unspecified
(41.5000°N, 0.0000°E)
Time: 10:33:50
(UTC+00:00)

Courier 1B Rocket - Pass Details

Date: 03 July 2019
Orbit: 920 x 1202 km, 28.2° (Epoch: 15 July)

Event Time Altitude Azimuth Distance (km) Brightness Sun altitude
Rises 23:04:08 0° 225° (SW) 4,075 - -24.1°
Reaches altitude 10° 23:07:41 10° 211° (SSW) 3,124 - -24.3°
Maximum altitude 23:13:22 22° 164° (SSE) 2,333 - -24.5°
Drops below altitude 10° 23:19:00 10° 116° (ESE) 3,094 - -24.7°
Sets 23:22:29 0° 102° (ESE) 4,027 - -24.9°
